User: anonymous   Login
Location: Sankt Anna
(58.3452°N, 16.7040°E)
Time: 14:50:04
(UTC+02:00)
Language:

SPROUT - Orbit

View from above orbital plane
View from above orbital plane
View from above satellite
View from above satellite

Ground track
Ground track

The orbit data is extracted from the following two-line orbital elements,

1 39770U 14029E   19144.20113629  .00000664  00000-0  79713-4 0  9992
2 39770  97.8819 247.6641 0009382 161.1439 199.0132 14.87310844271046
Epoch (UTC): 24 May 2019 04:49:38
Eccentricity: 0.0009382
inclination: 97.8819°
perigee height: 600 km
apogee height: 613 km
right ascension of ascending node: 247.6641°
argument of perigee: 161.1439°
revolutions per day: 14.87310844
mean anomaly at epoch: 199.0132°
orbit number at epoch: 27104

The dashed part of the orbit path shows where the satellite is in the earth's shadow,  

DLR